EW9652 Weather Reports


time (UTC)temp
C
wind
direction
speed
KPH
gust
KPH
rain 1hr
cm
rain 24hr
cm
rain mn
cm
humidity
%
barometer
mb
20260506070132 6 35 11.3 19.3 0.00 0.00 0.00 73 1012.7
20260506062113 8 34 11.3 17.7 0.00 0.00 0.00 67 1012.7
20260506061614 8 23 9.7 17.7 0.00 0.00 0.00 65 1012.5
20260506061112 8 32 11.3 17.7 0.00 0.00 0.00 66 1012.1
20260506060604 8 17 9.7 17.7 0.00 0.00 0.00 65 1012.0
20260506051058 10 84 16.1 25.7 0.00 0.00 0.00 61 1010.4
20260506050558 10 120 17.7 25.7 0.00 0.00 0.00 61 1010.3
20260506044558 10 103 16.1 25.7 0.00 0.00 0.00 59 1010.3
20260506044056 10 113 14.5 22.5 0.00 0.00 0.00 59 1010.3
20260506043552 10 108 16.1 24.1 0.00 0.00 0.00 58 1010.3
20260506043050 10 80 16.1 27.4 0.00 0.00 0.00 58 1010.3
20260506042550 10 114 16.1 27.4 0.00 0.00 0.00 58 1010.1
20260506042322 10 78 16.1 25.7 0.00 0.00 0.00 58 1010.1
20260506041549 10 89 17.7 25.7 0.00 0.00 0.00 58 1010.0
20260506041048 10 96 16.1 24.1 0.00 0.00 0.00 58 1009.9
20260506040548 11 124 16.1 27.4 0.00 0.00 0.00 57 1009.8
20260506040045 11 101 16.1 27.4 0.00 0.00 0.00 57 1009.8
20260506035547 11 98 16.1 24.1 0.00 0.00 0.00 57 1009.8
20260506035046 11 100 16.1 29.0 0.00 0.00 0.00 57 1009.9
20260506034546 11 94 16.1 29.0 0.00 0.00 0.00 57 1009.8
20260506034044 11 97 16.1 25.7 0.00 0.00 0.00 57 1009.8
20260506033544 11 95 16.1 25.7 0.00 0.00 0.00 57 1009.7
20260506033043 11 99 14.5 22.5 0.00 0.00 0.00 57 1009.6
20260506032545 11 82 12.9 19.3 0.00 0.00 0.00 57 1009.7
20260506032044 11 43 12.9 20.9 0.00 0.00 0.00 57 1009.6
20260506031543 11 148 12.9 24.1 0.00 0.00 0.00 57 1009.6
20260506031044 11 97 11.3 24.1 0.00 0.00 0.00 58 1009.6
20260506030544 12 98 11.3 20.9 0.00 0.00 0.00 58 1009.5
20260506030041 12 53 11.3 20.9 0.00 0.00 0.00 56 1009.3
20260506025811 12 58 9.7 17.7 0.00 0.00 0.00 56 1009.3
20260506025308 12 49 9.7 17.7 0.00 0.00 0.00 55 1009.3
20260506024807 12 53 9.7 20.9 0.00 0.00 0.00 55 1009.1
20260506024036 12 40 11.3 20.9 0.00 0.00 0.00 54 1009.0
20260506023534 12 52 12.9 20.9 0.00 0.00 0.00 54 1009.0
20260506023038 13 44 14.5 27.4 0.00 0.00 0.00 54 1008.9
20260506023034 12 37 14.5 20.9 0.00 0.00 0.00 54 1008.9
20260506022032 13 38 14.5 27.4 0.00 0.00 0.00 54 1008.5
20260506021532 13 49 14.5 25.7 0.00 0.00 0.00 56 1008.4
20260506021031 12 52 12.9 25.7 0.00 0.00 0.00 57 1008.4
20260506020532 12 69 9.7 17.7 0.00 0.00 0.00 60 1008.8
20260506020033 12 34 9.7 17.7 0.00 0.00 0.00 62 1008.9
20260506015517 12 23 12.9 19.3 0.00 0.00 0.00 62 1008.8
20260506015016 12 29 14.5 22.5 0.00 0.00 0.00 61 1008.5
20260506014515 13 8 16.1 22.5 0.00 0.00 0.00 60 1008.3
20260506014011 13 11 17.7 27.4 0.00 0.00 0.00 60 1008.1
20260506013512 13 18 20.9 30.6 0.00 0.00 0.00 58 1007.8
20260506013010 13 16 22.5 37.0 0.00 0.00 0.00 55 1007.8
20260506012515 15 26 25.7 37.0 0.00 0.00 0.00 45 1007.6
20260506012510 14 27 25.7 37.0 0.00 0.00 0.00 50 1007.8
20260506011507 15 21 24.1 33.8 0.00 0.00 0.00 44 1007.5
20260506011008 15 23 22.5 33.8 0.00 0.00 0.00 43 1007.2
20260506010508 16 32 20.9 37.0 0.00 0.00 0.00 42 1006.9
20260506010005 16 41 19.3 37.0 0.00 0.00 0.00 41 1006.4
20260506005504 17 14 19.3 30.6 0.00 0.00 0.00 40 1006.1
20260506005234 17 58 20.9 32.2 0.00 0.00 0.00 40 1006.1
20260506004502 17 33 20.9 32.2 0.00 0.00 0.00 39 1005.8
20260506004005 18 58 17.7 27.4 0.00 0.00 0.00 38 1005.5
20260506004001 18 37 20.9 29.0 0.00 0.00 0.00 38 1005.5
20260506002959 18 85 17.7 33.8 0.00 0.00 0.00 37 1005.3
20260506002458 18 56 17.7 33.8 0.00 0.00 0.00 37 1005.2
20260506001957 18 79 14.5 25.7 0.00 0.00 0.00 37 1005.3
20260506001458 18 49 14.5 24.1 0.00 0.00 0.00 37 1005.2
20260506000956 18 75 14.5 29.0 0.00 0.00 0.00 37 1005.4
20260506000455 18 99 16.1 29.0 0.00 0.00 0.00 36 1005.4
20260506000227 18 44 16.1 25.7 0.00 0.00 0.00 36 1005.3
20260505235454 19 115 16.1 25.7 0.00 0.00 0.00 36 1005.1
20260505234955 19 75 17.7 30.6 0.00 0.00 0.00 35 1005.2
20260505234452 19 120 17.7 30.6 0.00 0.00 0.00 35 1005.2
20260505233951 19 106 17.7 30.6 0.00 0.00 0.00 35 1005.3
20260505233453 19 133 19.3 30.6 0.00 0.00 0.00 35 1005.3
20260505232949 19 86 19.3 30.6 0.00 0.00 0.00 35 1005.3
20260505232449 19 91 17.7 30.6 0.00 0.00 0.00 35 1005.3
20260505232221 19 131 14.5 27.4 0.00 0.00 0.00 35 1005.3
20260505231719 19 85 16.1 27.4 0.00 0.00 0.00 35 1005.3
20260505230948 19 101 17.7 27.4 0.00 0.00 0.00 35 1005.3
20260505230718 19 102 14.5 25.7 0.00 0.00 0.00 35 1005.4
20260505225948 19 113 12.9 24.1 0.00 0.00 0.00 35 1005.4
20260505225445 19 89 11.3 24.1 0.00 0.00 0.00 35 1005.4
20260505224945 19 54 11.3 22.5 0.00 0.00 0.00 35 1005.6
20260505224446 19 86 11.3 20.9 0.00 0.00 0.00 35 1005.6
20260505223945 19 80 11.3 20.9 0.00 0.00 0.00 35 1005.7
20260505223445 19 63 11.3 19.3 0.00 0.00 0.00 35 1005.8
20260505222950 19 47 11.3 17.7 0.00 0.00 0.00 35 1006.0
20260505222946 19 63 11.3 17.7 0.00 0.00 0.00 35 1005.9
20260505221946 19 39 11.3 17.7 0.00 0.00 0.00 35 1006.0
20260505221445 20 26 8.0 17.7 0.00 0.00 0.00 35 1006.0
20260505220943 19 48 8.0 12.9 0.00 0.00 0.00 35 1006.0
20260505220441 19 63 11.3 22.5 0.00 0.00 0.00 35 1006.1
20260505215943 19 42 11.3 22.5 0.00 0.00 0.00 34 1006.4
20260505215939 19 57 14.5 22.5 0.00 0.00 0.00 35 1006.3
20260505214937 20 55 8.0 16.1 0.00 0.00 0.00 34 1006.4
20260505214706 19 46 8.0 16.1 0.00 0.00 0.00 35 1006.4
20260505213935 19 34 9.7 16.1 0.00 0.00 0.00 36 1006.3
20260505213706 19 18 11.3 19.3 0.00 0.00 0.00 36 1006.5
20260505212936 18 18 12.9 20.9 0.00 0.00 0.00 36 1006.6
20260505212435 18 33 12.9 20.9 0.00 0.00 0.00 36 1006.6
20260505212207 18 25 11.3 20.9 0.00 0.00 0.00 35 1006.8
20260505211434 19 93 8.0 22.5 0.00 0.00 0.00 35 1006.8
20260505210933 20 60 8.0 22.5 0.00 0.00 0.00 35 1006.9
20260505210433 19 52 4.8 12.9 0.00 0.00 0.00 36 1007.0
20260505205933 19 0 4.8 12.9 0.00 0.00 0.00 36 1007.2
20260505205431 18 12 6.4 14.5 0.00 0.00 0.00 36 1007.3
20260505205201 18 57 8.0 16.1 0.00 0.00 0.00 37 1007.3
20260505204429 18 26 8.0 20.9 0.00 0.00 0.00 37 1007.4
20260505203927 18 41 4.8 20.9 0.00 0.00 0.00 37 1007.5
20260505203427 18 347 4.8 11.3 0.00 0.00 0.00 38 1007.6
20260505202925 18 13 8.0 14.5 0.00 0.00 0.00 37 1007.6
20260505202423 18 65 6.4 14.5 0.00 0.00 0.00 37 1007.7
20260505201923 18 36 4.8 12.9 0.00 0.00 0.00 38 1007.7
20260505201423 18 359 4.8 12.9 0.00 0.00 0.00 38 1007.7
20260505200923 18 22 8.0 20.9 0.00 0.00 0.00 38 1007.7
20260505200423 17 18 9.7 20.9 0.00 0.00 0.00 38 1007.7
20260505195922 18 0 8.0 16.1 0.00 0.00 0.00 38 1007.6
20260505195655 18 44 6.4 17.7 0.00 0.00 0.00 38 1007.6
20260505194923 17 343 8.0 19.3 0.00 0.00 0.00 39 1007.7
20260505194423 18 25 11.3 20.9 0.00 0.00 0.00 38 1007.6
20260505193917 18 55 8.0 20.9 0.00 0.00 0.00 38 1007.6
20260505193418 17 120 8.0 20.9 0.00 0.00 0.00 40 1007.7
20260505192916 17 4 12.9 22.5 0.00 0.00 0.00 40 1007.6
20260505192417 17 34 11.3 22.5 0.00 0.00 0.00 39 1007.8
20260505191918 17 58 11.3 20.9 0.00 0.00 0.00 40 1007.7
20260505191417 17 8 12.9 20.9 0.00 0.00 0.00 39 1007.7
20260505191149 17 11 11.3 22.5 0.00 0.00 0.00 40 1007.6
20260505190649 17 53 11.3 22.5 0.00 0.00 0.00 40 1007.7
20260505185918 17 25 11.3 19.3 0.00 0.00 0.00 40 1007.6
20260505185415 17 39 11.3 20.9 0.00 0.00 0.00 41 1007.6
20260505184914 17 1 12.9 24.1 0.00 0.00 0.00 41 1007.7
20260505184409 17 15 12.9 24.1 0.00 0.00 0.00 42 1007.8
20260505183909 16 10 14.5 22.5 0.00 0.00 0.00 43 1007.8
20260505183409 16 20 14.5 22.5 0.00 0.00 0.00 43 1007.9
20260505182909 16 35 12.9 20.9 0.00 0.00 0.00 43 1008.1
20260505182407 16 11 14.5 20.9 0.00 0.00 0.00 43 1008.3
20260505181907 16 18 14.5 20.9 0.00 0.00 0.00 43 1008.2
20260505181405 16 22 14.5 20.9 0.00 0.00 0.00 42 1008.1
20260505180905 16 29 14.5 22.5 0.00 0.00 0.00 43 1008.0
20260505180406 16 31 14.5 22.5 0.00 0.00 0.00 43 1008.1
20260505175905 16 13 14.5 24.1 0.00 0.00 0.00 42 1008.0
20260505175406 16 355 14.5 24.1 0.00 0.00 0.00 43 1008.1
20260505174905 16 11 14.5 25.7 0.00 0.00 0.00 42 1008.1
20260505174403 16 57 16.1 25.7 0.00 0.00 0.00 43 1008.2
20260505173903 16 34 14.5 25.7 0.00 0.00 0.00 42 1008.3
20260505173401 17 32 11.3 22.5 0.00 0.00 0.00 43 1008.2
20260505172900 15 12 11.3 20.9 0.00 0.00 0.00 45 1008.2
20260505172401 15 25 12.9 22.5 0.00 0.00 0.00 45 1008.4
20260505171901 15 3 12.9 22.5 0.00 0.00 0.00 46 1008.2
20260505171629 15 6 14.5 22.5 0.00 0.00 0.00 44 1008.1
20260505171131 15 9 14.5 24.1 0.00 0.00 0.00 44 1008.1
20260505170856 15 1 14.5 22.5 0.00 0.00 0.00 45 1008.1
20260505170128 15 14 14.5 24.1 0.00 0.00 0.00 46 1008.2
20260505165355 15 21 16.1 29.0 0.00 0.00 0.00 45 1008.3
20260505164852 15 359 16.1 29.0 0.00 0.00 0.00 45 1008.2
20260505164353 15 17 14.5 24.1 0.00 0.00 0.00 44 1008.2
20260505163853 15 20 14.5 25.7 0.00 0.00 0.00 46 1008.2
20260505163352 15 25 16.1 25.7 0.00 0.00 0.00 45 1008.1
20260505162851 15 27 16.1 25.7 0.00 0.00 0.00 45 1008.1
20260505162351 15 15 16.1 25.7 0.00 0.00 0.00 44 1008.2
20260505161850 14 1 16.1 24.1 0.00 0.00 0.00 45 1008.2
20260505161620 14 38 16.1 25.7 0.00 0.00 0.00 45 1008.4
20260505160848 13 356 17.7 25.7 0.00 0.00 0.00 46 1008.1
20260505160350 14 33 16.1 25.7 0.00 0.00 0.00 45 1008.2
20260505152842 14 352 17.7 30.6 0.00 0.00 0.00 44 1007.4
20260505152614 14 15 17.7 30.6 0.00 0.00 0.00 44 1007.4
20260505151841 13 31 17.7 29.0 0.00 0.00 0.00 44 1007.4
20260505151340 13 23 16.1 25.7 0.00 0.00 0.00 46 1007.3
20260505150838 13 353 17.7 25.7 0.00 0.00 0.00 47 1007.3
20260505150339 13 8 19.3 27.4 0.00 0.00 0.00 46 1007.2
20260505140555 12 0 19.3 27.4 0.00 0.00 0.00 50 1007.0
20260505124811 12 0 11.3 17.7 0.00 0.00 0.00 54 1005.4
20260505124310 12 1 11.3 19.3 0.00 0.00 0.00 55 1005.5
20260505123812 12 359 11.3 19.3 0.00 0.00 0.00 55 1005.2
20260505123310 12 357 12.9 20.9 0.00 0.00 0.00 55 1005.1
20260505122810 12 0 14.5 20.9 0.00 0.00 0.00 55 1004.9
20260505122309 12 348 16.1 22.5 0.00 0.00 0.00 55 1004.8
20260505121807 12 359 16.1 22.5 0.00 0.00 0.00 56 1004.7
20260505121306 12 359 16.1 24.1 0.00 0.00 0.00 56 1004.7
20260505120805 12 1 16.1 24.1 0.00 0.00 0.00 55 1004.6
20260505120304 12 2 14.5 24.1 0.00 0.00 0.00 55 1004.9
20260505115805 12 0 14.5 22.5 0.00 0.00 0.00 55 1004.9
20260505115304 12 15 16.1 25.7 0.00 0.00 0.00 55 1004.9
20260505115033 12 6 16.1 25.7 0.00 0.00 0.00 56 1004.7
20260505114302 13 354 17.7 27.4 0.00 0.00 0.00 56 1004.5
20260505114032 13 1 19.3 30.6 0.00 0.00 0.00 57 1004.3
20260505113300 13 0 17.7 30.6 0.00 0.00 0.00 56 1004.4
20260505112802 13 358 19.3 29.0 0.00 0.00 0.00 56 1004.2
20260505112758 13 359 17.7 25.7 0.00 0.00 0.00 56 1004.3
20260505111758 13 1 20.9 29.0 0.00 0.00 0.00 55 1004.4
20260505111258 13 1 20.9 33.8 0.00 0.00 0.00 55 1004.3
20260505110756 14 359 22.5 33.8 0.00 0.00 0.00 54 1004.2
20260505110254 14 359 20.9 33.8 0.00 0.00 0.00 52 1004.1
20260505101751 17 353 20.9 30.6 0.00 0.00 0.00 30 1003.8
20260505101248 18 326 20.9 33.8 0.00 0.00 0.00 28 1003.6
20260505100748 18 352 17.7 33.8 0.00 0.00 0.00 27 1003.4
20260505100249 18 359 14.5 32.2 0.00 0.00 0.00 27 1003.4
20260505095746 19 337 14.5 27.4 0.00 0.00 0.00 27 1003.3
20260505095246 20 333 19.3 45.1 0.00 0.00 0.00 25 1003.0
20260505094747 20 313 19.3 45.1 0.00 0.00 0.00 26 1002.6
20260505094511 20 347 16.1 29.0 0.00 0.00 0.00 25 1002.2
20260505093740 20 262 14.5 27.4 0.00 0.00 0.00 25 1002.0
20260505093241 20 264 14.5 30.6 0.00 0.00 0.00 25 1001.8
20260505092740 20 199 16.1 35.4 0.00 0.00 0.00 25 1001.6
20260505092239 20 257 17.7 35.4 0.00 0.00 0.00 25 1001.5
20260505091739 20 226 17.7 33.8 0.00 0.00 0.00 24 1001.5
20260505091236 20 249 14.5 27.4 0.00 0.00 0.00 24 1001.6
20260505091007 20 274 12.9 27.4 0.00 0.00 0.00 24 1001.7
20260505090842 20 237 11.3 24.1 0.00 0.00 0.00 24 1001.9
20260505085732 20 165 11.3 20.9 0.00 0.00 0.00 24 1001.9
20260505085232 20 257 12.9 24.1 0.00 0.00 0.00 24 1001.8
20260505085003 20 250 12.9 24.1 0.00 0.00 0.00 24 1001.8
20260505084457 20 236 12.9 20.9 0.00 0.00 0.00 24 1001.7
20260505083957 20 230 12.9 20.9 0.00 0.00 0.00 24 1001.7
20260505083227 20 234 12.9 24.1 0.00 0.00 0.00 24 1001.6
20260505082727 20 214 11.3 24.1 0.00 0.00 0.00 23 1001.6
20260505082225 20 246 12.9 22.5 0.00 0.00 0.00 23 1001.5
20260505081956 21 244 14.5 25.7 0.00 0.00 0.00 23 1001.5
20260505081225 21 198 14.5 25.7 0.00 0.00 0.00 23 1001.5
20260505080955 21 340 14.5 25.7 0.00 0.00 0.00 22 1001.6
20260505080224 21 260 14.5 25.7 0.00 0.00 0.00 22 1001.7
20260505075721 21 249 11.3 22.5 0.00 0.00 0.00 22 1001.7
20260505075219 21 306 9.7 22.5 0.00 0.00 0.00 22 1001.9
20260505074719 21 250 11.3 22.5 0.00 0.00 0.00 22 1001.8
20260505074218 21 249 11.3 24.1 0.00 0.00 0.00 22 1001.9
20260505073718 21 281 11.3 25.7 0.00 0.00 0.00 22 1002.0
20260505073218 21 257 11.3 25.7 0.00 0.00 0.00 22 1002.0
20260505072716 21 257 12.9 20.9 0.00 0.00 0.00 22 1002.1
20260505072216 21 251 12.9 22.5 0.00 0.00 0.00 22 1002.0
20260505071948 21 196 11.3 22.5 0.00 0.00 0.00 22 1002.2
20260505071214 21 240 9.7 22.5 0.00 0.00 0.00 22 1002.2
20260505070710 21 233 9.7 19.3 0.00 0.00 0.00 22 1002.2